Location: Unspecified
(0.0000°N, 0.0000°E)
Time: 02:35:23
(UTC+00:00)

Vanguard 2 Rocket - Pass Details

Date: 16 December 2018
Orbit: 554 x 3327 km, 32.9° (Epoch: 16 January)

Event Time Altitude Azimuth Distance (km) Brightness Sun altitude
Rises 16:59:22 0° 264° (W) 5,972 12.6 12.9°
Reaches altitude 10° 17:03:56 10° 252° (WSW) 5,346 13.7 11.9°
Maximum altitude 17:17:29 28° 200° (SSW) 4,756 11.3 8.8°
Drops below altitude 10° 17:33:29 10° 148° (SSE) 6,237 11.1 5.1°
Sets 17:39:36 0° 137° (SE) 7,087 11.2 3.7°
